12P/Pons-Brooks (2024)

Japanese version
Home page
Updated on November 7, 2024

---------------------------------------------------------------------

* Profile

Recovery Date June 10, 2020
Magnitude 22.8 mag
Recoverer M. M. Knight, C. E. Holt, Q.-Z. Ye, L. M. Feaga, M. S. P. Kelley, L. Shumar, J. Sanborn, A. Hayslip (Lowell Observatory)

* Pictures

* Orbital Elements

Epoch 2024 Oct. 17.0 TT = JDT 2460600.5
T 2024 Apr. 21.12544 TT                                 Rudenko
q   0.7808148            (2000.0)            P               Q
n   0.01382906     Peri.  198.99031     +0.14510998     -0.32929564
a  17.1899354      Node   255.85553     +0.98566424     +0.13014945
e   0.9545772      Incl.   74.19215     +0.08607609     -0.93521415
P  71.3
>From 4468 observations 2023 Oct. 1-2024 Aug. 26, mean residual 0".6.
     Nongravitational parameters A1 = +0.72, A2 = -0.2212.

* Finding Charts

* Magnitudes Graph

        H = 12.5  G = 0.15                       [    ,-840]  (             - 2022 Jan.  2)
        m1 = 5.0 + 5 log d + 13.5 log r          [-840,-276]  (2022 Jan.  2 - 2023 July 20)
        m1 = 9.0 + 5 log d +  0.0 log r          [-276,-158]  (2023 July 20 - 2023 Nov. 15)
        m1 = 8.5 + 5 log d -  5.0 log r          [-158,-100]  (2023 Nov. 15 - 2024 Jan. 12)
        m1 = 4.6 + 5 log d +  9.5 log r          [-100,  14]  (2024 Jan. 12 - 2024 May   5)
        m1 = 4.3 + 5 log d + 11.0 log r(t + 10)  [  14,    ]  (2024 May   5 -             )

---------------------------------------------------------------------

The orbital elements are published on M.P.E.C. 2024-R10.
The charts are made with StellaNavigator Ver.10 (AstroArts).
The magnitudes graphs are made with Comet for Windows.

---------------------------------------------------------------------

Copyright(C) Seiichi Yoshida (comet@aerith.net). All rights reserved.